CZ-6A DEB, 56672

Orbit data source: Space-Track

CZ-6A DEB, 56672 is space debris in SSO originally from a launch on Fri, 11 Nov 2022 UTC launched from the Taiyaun Space Center, China (TSC). Debris objects in space refer to the collection of defunct objects orbiting the Earth. Examples of debris include non-operational satellites, rocket bodies, and fragments generated from explosions, collisions, or faulty payload assembly.

Loading next visibility...
Identifier
56672, 2022-151AGY
Orbit
SSO
Country
Flag of CNCN / PRC
Related business
Manufacturer
SAST
Mission
Spacecraft
Bus & Motor
Unknown
Mass
Unknown
Launch date (UTC)
2022-11-11 (3 years ago)
Launch vehicle
Unknown
Launch site
Taiyaun Space Center, China (TSC)
Object type
Payload
Rocket body
Debris
Shape & HBR
Unknown shape, 0.1 m
Radar Cross Section
Small (<0.1 m²)

Expand to show TLE details & history
Last TLE update: 4 days ago

TLE from 4 days ago
0 CZ-6A DEB
1 56672U 22151AGY 25346.61604100  .00000548  00000-0  46197-3 0  9992
2 56672  98.8795 301.3666 0154627 263.0256  95.3293 13.86624451138371
Epoch: 2025-12-12T14:47Z
TLE epoch observation values (Epoch: 2025-12-12T14:47:05.942Z)
Latitude
0.00001°
Longitude
-1.96327°
Altitude
955.592 km
Speed
7.368 km/s
True Right ascension
20h 05m 27s
True Declination
0° 00' 00"
Sunlit
Object was in daylight at epoch
Visualization orbit readout
Latitude
Unknown
Longitude
Unknown
Altitude
Unknown
Speed
Unknown
Apparent Right ascension
Unknown
Apparent Declination
Unknown
Sunlit
N/A
Visualization observer readout
Local Sidereal Time
23:45:51
Azimuth
Unknown
Elevation
Unknown
Doppler factor
Unknown
Orbital elements
Apogee altitude
1,050.817 km
Perigee altitude
824.572 km
Semi-major axis
7,315.832 km
Eccentricity
0.01546
Inclination
98.8795°
RAAN
301.3666°
Arg. of periapsis
263.0256°
True anomaly
97.0901°
Mean anomaly
95.3293°
Eccentric anomaly
96.21005°
Mean motion
3.46855 °/min
Orbital period
103.79 mins
BSTAR
0.00046197
Loading maneuver chart data...
Computing Atmospheric mass density...
Loading historical data...
Loading historical data...
Loading historical data...
Loading historical data...
Loading historical data...
Loading historical data...
Loading historical data...

Documentation

Showing up to 5 results
|